TimeEST,TemperatureF,Dew PointF,Humidity,Sea Level PressureIn,VisibilityMPH,Wind Direction,Wind SpeedMPH,Gust SpeedMPH,PrecipitationIn,Events,Conditions,WindDirDegrees,DateUTC
12:52 AM,34.0,27.0,75,30.32,8.0,ENE,3.5,-,0.01,Rain,Light Rain,70,2013-01-28 05:52:00
1:27 AM,35.6,28.4,75,30.27,6.0,Calm,Calm,-,0.02,Rain,Light Freezing Rain,0,2013-01-28 06:27:00
1:52 AM,35.1,28.9,78,30.30,5.0,Calm,Calm,-,0.05,Rain,Light Freezing Rain,0,2013-01-28 06:52:00
2:41 AM,33.8,30.2,87,30.27,2.0,Calm,Calm,-,0.01,Rain,Light Freezing Rain,0,2013-01-28 07:41:00
2:45 AM,33.8,30.2,87,30.27,1.8,Calm,Calm,-,0.01,,Overcast,0,2013-01-28 07:45:00
2:52 AM,34.0,30.0,85,30.30,1.8,Calm,Calm,-,0.01,,Overcast,0,2013-01-28 07:52:00
3:52 AM,35.1,30.9,85,30.30,2.0,Calm,Calm,-,0.03,,Overcast,0,2013-01-28 08:52:00
3:59 AM,35.6,30.2,81,30.27,1.0,North,3.5,-,0.00,,Overcast,350,2013-01-28 08:59:00
4:01 AM,35.6,30.2,81,30.27,0.8,Calm,Calm,-,0.00,Rain,Light Freezing Rain,0,2013-01-28 09:01:00
4:26 AM,35.6,33.8,93,30.26,1.0,Calm,Calm,-,0.01,Rain,Light Freezing Rain,0,2013-01-28 09:26:00
4:33 AM,35.6,30.2,81,30.26,1.2,Calm,Calm,-,0.01,,Overcast,0,2013-01-28 09:33:00
4:52 AM,35.1,30.9,85,30.30,2.0,Calm,Calm,-,0.01,Rain,Light Rain,0,2013-01-28 09:52:00
5:10 AM,35.6,33.8,93,30.26,1.8,Calm,Calm,-,0.00,,Overcast,0,2013-01-28 10:10:00
5:14 AM,35.6,33.8,93,30.26,3.0,Calm,Calm,-,0.00,,Overcast,0,2013-01-28 10:14:00
5:52 AM,37.0,34.0,89,30.30,7.0,West,3.5,-,0.00,,Overcast,280,2013-01-28 10:52:00
6:00 AM,39.2,35.6,87,30.27,10.0,West,4.6,-,N/A,,Overcast,270,2013-01-28 11:00:00
6:52 AM,42.1,36.0,79,30.31,10.0,West,6.9,-,N/A,,Mostly Cloudy,260,2013-01-28 11:52:00
7:52 AM,44.1,35.1,71,30.30,10.0,WSW,11.5,-,N/A,,Scattered Clouds,240,2013-01-28 12:52:00
8:52 AM,46.9,37.0,68,30.29,10.0,West,6.9,-,N/A,,Clear,260,2013-01-28 13:52:00
9:52 AM,51.1,39.9,66,30.27,10.0,West,9.2,-,N/A,,Mostly Cloudy,260,2013-01-28 14:52:00
10:52 AM,54.0,41.0,62,30.27,10.0,WSW,10.4,19.6,N/A,,Partly Cloudy,240,2013-01-28 15:52:00
11:52 AM,55.9,41.0,57,30.25,10.0,West,23.0,31.1,N/A,,Clear,260,2013-01-28 16:52:00
12:52 PM,59.0,42.1,53,30.20,10.0,WSW,11.5,21.9,N/A,,Scattered Clouds,250,2013-01-28 17:52:00
1:52 PM,57.9,43.0,58,30.17,10.0,West,20.7,28.8,N/A,,Overcast,260,2013-01-28 18:52:00
2:52 PM,57.0,43.0,59,30.17,10.0,West,24.2,35.7,N/A,,Mostly Cloudy,260,2013-01-28 19:52:00
3:10 PM,55.4,44.6,67,30.18,10.0,West,18.4,35.7,N/A,,Overcast,260,2013-01-28 20:10:00
3:52 PM,55.0,44.1,67,30.19,10.0,WSW,20.7,34.5,N/A,,Overcast,250,2013-01-28 20:52:00
4:12 PM,53.6,44.6,72,30.19,10.0,West,12.7,29.9,N/A,,Scattered Clouds,260,2013-01-28 21:12:00
4:43 PM,53.6,44.6,72,30.19,10.0,West,20.7,27.6,N/A,,Mostly Cloudy,260,2013-01-28 21:43:00
5:10 PM,53.6,44.6,72,30.19,10.0,West,13.8,27.6,0.00,Rain,Light Rain,260,2013-01-28 22:10:00
5:52 PM,53.1,43.0,69,30.19,10.0,West,16.1,24.2,0.00,Rain,Light Rain,260,2013-01-28 22:52:00
6:50 PM,51.8,44.6,76,30.21,10.0,West,15.0,23.0,0.01,Rain,Light Rain,270,2013-01-28 23:50:00
6:52 PM,51.1,44.1,77,30.19,10.0,West,16.1,-,0.01,Rain,Light Rain,260,2013-01-28 23:52:00
7:38 PM,50.0,44.6,82,30.21,10.0,West,12.7,-,0.02,Rain,Light Rain,260,2013-01-29 00:38:00
7:52 PM,50.0,44.1,80,30.20,10.0,West,13.8,19.6,0.03,Rain,Light Rain,260,2013-01-29 00:52:00
8:52 PM,50.0,45.0,83,30.19,10.0,WSW,11.5,21.9,0.00,Rain,Light Rain,250,2013-01-29 01:52:00
9:52 PM,50.0,46.0,86,30.17,9.0,West,10.4,-,0.06,Rain,Light Rain,260,2013-01-29 02:52:00
10:52 PM,50.0,45.0,83,30.17,10.0,WSW,15.0,21.9,0.02,Rain,Light Rain,250,2013-01-29 03:52:00
11:52 PM,51.1,46.0,83,30.16,7.0,West,12.7,20.7,0.06,Rain,Rain,260,2013-01-29 04:52:00